Home > Weather > Meerbusch > Past weeks

Flag for Germany Weather for the Past 2 Weeks in Meerbusch, North Rhine-Westphalia, Germany

Now
75 °F

Sunny.


Feels Like: 77 °F
Forecast: 56 / 75 °F
Wind: 15 mph from South

Location: Duesseldorf

Current Time: May 6, 2016 at 5:43:46 PM

Latest Report: May 6, 2016 at 5:20 PM


Visibility: 10 mi

Pressure: 29.86 "Hg

Humidity: 34%

Dew Point: 45 °F

Location of MeerbuschLocation

Historic Weather in Meerbusch — Graph

°F

Meerbusch Temperature Yesterday

Maximum temperature yesterday: 68 °F (at 3:50 PM)
Minimum temperature yesterday: 37 °F (at 5:50 AM)
Average temperature yesterday: 55 °F

High & Low Weather Summary for the Past Weeks

 TemperatureHumidityPressure
High75 °F (May 6, 3:20 PM)100% (Apr 25, 7:50 PM)30.42 "Hg (Apr 25, 7:50 PM)
Low34 °F (Apr 25, 4:20 AM)31% (May 4, 6:20 PM)29.50 "Hg (Apr 26, 8:20 AM)
Average48 °F72%30.02 "Hg
* Reported Apr 21 4:20 PM — May 6 4:20 PM, Meerbusch, Weather by CustomWeather, © 2016

Note: Actual official high and low records may vary slightly from our data, if they occured in-between our weather recording intervals... More about our weather records

Advertising

Meerbusch Weather History for the Previous 24 Hours

Scroll right to see more
 ConditionsComfort  
Time TempWeatherWind HumidityBarometerVisibility
4:20 PM
Fri, May 6
75 °FPassing clouds.14 mph36%29.89 "HgN/A
3:50 PM75 °FSunny.16 mph36%29.89 "Hg10 mi
3:20 PM75 °FPassing clouds.14 mph39%29.89 "HgN/A
2:50 PM73 °FSunny.15 mph41%29.89 "Hg10 mi
2:20 PM73 °FPassing clouds.15 mph38%29.92 "HgN/A
1:50 PM73 °FPassing clouds.14 mph38%29.92 "HgN/A
1:20 PM73 °FPassing clouds.12 mph41%29.92 "HgN/A
12:50 PM72 °FPassing clouds.14 mph44%29.95 "HgN/A
12:20 PM70 °FPassing clouds.12 mph46%29.95 "HgN/A
11:50 AM68 °FSunny.13 mph53%29.95 "Hg10 mi
11:20 AM66 °FPassing clouds.13 mph52%29.95 "HgN/A
10:50 AM66 °FPassing clouds.12 mph52%29.98 "HgN/A
10:20 AM64 °FPassing clouds.13 mph60%29.98 "HgN/A
9:50 AM63 °FPassing clouds.14 mph59%29.98 "HgN/A
9:20 AM61 °FPassing clouds.12 mph63%29.98 "HgN/A
8:50 AM61 °FSunny.10 mph63%29.98 "Hg10 mi
8:20 AM59 °FSunny.10 mph68%30.01 "Hg10 mi
7:50 AM55 °FSunny.6 mph77%30.01 "Hg10 mi
7:20 AM52 °FSunny.3 mph77%30.01 "Hg10 mi
6:50 AM46 °FClear.3 mph93%30.01 "Hg10 mi
6:20 AM46 °FFog.3 mph87%30.01 "HgN/A
5:50 AM46 °FClear.5 mph87%30.01 "Hg10 mi
5:20 AM45 °FClear.5 mph93%30.04 "Hg10 mi
4:50 AM46 °FClear.2 mph87%30.04 "Hg10 mi
4:20 AM46 °FClear.2 mph93%30.04 "Hg10 mi
3:50 AM46 °FClear.2 mph93%30.04 "Hg10 mi
3:20 AM46 °FClear.2 mph93%30.07 "Hg10 mi
2:50 AM48 °FClear.2 mph87%30.07 "Hg10 mi
2:20 AM52 °FClear.3 mph77%30.07 "Hg10 mi
1:50 AM52 °FClear.3 mph77%30.07 "Hg10 mi
1:20 AM50 °FClear.5 mph76%30.07 "Hg10 mi
12:50 AM50 °FClear.6 mph82%30.07 "Hg10 mi
12:20 AM50 °FClear.7 mph82%30.07 "Hg10 mi
11:50 PM
Thu, May 5
50 °FClear.7 mph82%30.07 "Hg10 mi
11:20 PM54 °FClear.9 mph72%30.07 "Hg10 mi
10:50 PM52 °FClear.6 mph77%30.09 "Hg10 mi
10:20 PM54 °FClear.6 mph77%30.09 "Hg10 mi
9:50 PM57 °FPassing clouds.5 mph63%30.09 "HgN/A
9:20 PM59 °FSunny.5 mph59%30.09 "Hg10 mi
8:50 PM61 °FSunny.6 mph55%30.09 "Hg10 mi
8:20 PM64 °FSunny.7 mph49%30.09 "Hg10 mi
7:50 PM66 °FPassing clouds.8 mph43%30.09 "HgN/A
7:20 PM68 °FSunny.12 mph38%30.09 "Hg10 mi
6:50 PM68 °FSunny.10 mph40%30.09 "Hg10 mi
6:20 PM68 °FPassing clouds.10 mph40%30.12 "HgN/A
5:50 PM68 °FPassing clouds.10 mph38%30.12 "HgN/A
5:20 PM68 °FPassing clouds.9 mph38%30.12 "HgN/A
Weather by CustomWeather, © 2016

See weather overviewHow to use our weather pages